Time,TemperatureF,DewpointF,PressureIn,WindDirection,WindDirectionDegrees,WindSpeedMPH,WindSpeedGustMPH,Humidity,HourlyPrecipIn,Conditions,Clouds,dailyrainin,SoftwareType,DateUTC
2013-06-21 00:03:00,63.1,63.1,30.13,West,270,0.0,0.0,100,0.00,,,0.00,WSDL version 423,2013-06-21 04:03:00,
2013-06-21 00:11:00,62.8,62.8,30.13,West,270,0.0,0.0,100,0.00,,,0.00,WSDL version 423,2013-06-21 04:11:00,
2013-06-21 00:21:00,62.6,62.6,30.14,West,270,0.0,0.0,100,0.00,,,0.00,WSDL version 423,2013-06-21 04:21:00,
2013-06-21 00:31:00,62.3,62.3,30.13,West,270,0.0,0.0,100,0.00,,,0.00,WSDL version 423,2013-06-21 04:31:00,
2013-06-21 00:41:00,61.9,61.9,30.14,West,270,0.0,0.0,100,0.00,,,0.00,WSDL version 423,2013-06-21 04:41:00,
2013-06-21 00:51:00,61.7,61.7,30.14,West,270,0.0,0.0,100,0.00,,,0.00,WSDL version 423,2013-06-21 04:51:00,
2013-06-21 01:01:00,61.4,61.4,30.14,West,270,0.0,0.0,100,0.00,,,0.00,WSDL version 423,2013-06-21 05:01:00,
2013-06-21 01:11:00,61.2,61.2,30.13,West,270,0.0,0.0,100,0.00,,,0.00,WSDL version 423,2013-06-21 05:11:00,
2013-06-21 01:21:00,61.0,61.0,30.13,West,270,0.0,0.0,100,0.00,,,0.00,WSDL version 423,2013-06-21 05:21:00,
2013-06-21 01:31:00,60.9,60.9,30.13,West,270,0.0,0.0,100,0.00,,,0.00,WSDL version 423,2013-06-21 05:31:00,
2013-06-21 01:41:00,61.0,61.0,30.13,West,270,0.0,0.0,100,0.00,,,0.00,WSDL version 423,2013-06-21 05:41:00,
2013-06-21 01:51:00,60.8,60.8,30.13,West,270,0.0,2.2,100,0.00,,,0.00,WSDL version 423,2013-06-21 05:51:00,
2013-06-21 02:01:00,60.6,60.6,30.13,West,270,0.0,2.2,100,0.00,,,0.00,WSDL version 423,2013-06-21 06:01:00,
2013-06-21 02:11:00,60.4,60.4,30.13,West,270,0.0,2.2,100,0.00,,,0.00,WSDL version 423,2013-06-21 06:11:00,
2013-06-21 02:21:00,60.3,60.3,30.13,West,270,0.0,0.0,100,0.00,,,0.00,WSDL version 423,2013-06-21 06:21:00,
2013-06-21 02:31:00,60.1,60.1,30.13,West,270,0.0,0.0,100,0.00,,,0.00,WSDL version 423,2013-06-21 06:31:00,
2013-06-21 02:41:00,59.9,59.9,30.12,West,270,0.0,0.0,100,0.00,,,0.00,WSDL version 423,2013-06-21 06:41:00,
2013-06-21 02:51:00,59.6,59.6,30.12,West,270,0.0,0.0,100,0.00,,,0.00,WSDL version 423,2013-06-21 06:51:00,
2013-06-21 03:01:00,59.4,59.4,30.12,West,270,0.0,0.0,100,0.00,,,0.00,WSDL version 423,2013-06-21 07:01:00,
2013-06-21 03:11:00,59.4,59.4,30.12,West,270,0.0,0.0,100,0.00,,,0.00,WSDL version 423,2013-06-21 07:11:00,
2013-06-21 03:21:00,59.2,59.2,30.12,West,270,0.0,0.0,100,0.00,,,0.00,WSDL version 423,2013-06-21 07:21:00,
2013-06-21 03:31:00,59.0,59.0,30.12,West,270,0.0,0.0,100,0.00,,,0.00,WSDL version 423,2013-06-21 07:31:00,
2013-06-21 03:41:00,58.8,58.8,30.12,West,270,0.0,0.0,100,0.00,,,0.00,WSDL version 423,2013-06-21 07:41:00,
2013-06-21 03:51:00,58.8,58.8,30.12,West,270,0.0,0.0,100,0.00,,,0.00,WSDL version 423,2013-06-21 07:51:00,
2013-06-21 04:01:00,58.5,58.5,30.12,West,270,0.0,0.0,100,0.00,,,0.00,WSDL version 423,2013-06-21 08:01:00,
2013-06-21 04:11:00,58.4,58.4,30.12,West,270,0.0,0.0,100,0.00,,,0.00,WSDL version 423,2013-06-21 08:11:00,
2013-06-21 04:21:00,58.3,58.3,30.12,West,270,0.0,0.0,100,0.00,,,0.00,WSDL version 423,2013-06-21 08:21:00,
2013-06-21 04:31:00,58.1,58.1,30.12,West,270,0.0,0.0,100,0.00,,,0.00,WSDL version 423,2013-06-21 08:31:00,
2013-06-21 04:41:00,58.0,58.0,30.12,West,270,0.0,0.0,100,0.00,,,0.00,WSDL version 423,2013-06-21 08:41:00,
2013-06-21 04:51:00,57.8,57.8,30.13,West,270,0.0,0.0,100,0.00,,,0.00,WSDL version 423,2013-06-21 08:51:00,
2013-06-21 05:01:00,57.7,57.7,30.12,West,270,0.0,0.0,100,0.00,,,0.00,WSDL version 423,2013-06-21 09:01:00,
2013-06-21 05:11:00,57.7,57.7,30.13,West,270,0.0,0.0,100,0.00,,,0.00,WSDL version 423,2013-06-21 09:11:00,
2013-06-21 05:21:00,57.7,57.7,30.13,West,270,0.0,0.0,100,0.00,,,0.00,WSDL version 423,2013-06-21 09:21:00,
2013-06-21 05:31:00,57.6,57.6,30.13,West,270,0.0,0.0,100,0.00,,,0.00,WSDL version 423,2013-06-21 09:31:00,
2013-06-21 05:41:00,57.6,57.6,30.13,West,270,0.0,0.0,100,0.00,,,0.00,WSDL version 423,2013-06-21 09:41:00,
2013-06-21 05:51:00,57.7,57.7,30.13,West,270,0.0,0.0,100,0.00,,,0.00,WSDL version 423,2013-06-21 09:51:00,
2013-06-21 06:01:00,57.8,57.8,30.13,West,270,0.0,0.0,100,0.00,,,0.00,WSDL version 423,2013-06-21 10:01:00,
2013-06-21 06:11:00,57.9,57.9,30.13,West,270,0.0,0.0,100,0.00,,,0.00,WSDL version 423,2013-06-21 10:11:00,
2013-06-21 06:21:00,58.1,58.1,30.14,West,270,0.0,0.0,100,0.00,,,0.00,WSDL version 423,2013-06-21 10:21:00,
2013-06-21 06:31:00,58.3,58.3,30.13,West,270,0.0,0.0,100,0.00,,,0.00,WSDL version 423,2013-06-21 10:31:00,
2013-06-21 06:41:00,58.7,58.7,30.13,West,270,0.0,0.0,100,0.00,,,0.00,WSDL version 423,2013-06-21 10:41:00,
2013-06-21 06:51:00,59.2,59.2,30.13,West,270,0.0,2.7,100,0.00,,,0.00,WSDL version 423,2013-06-21 10:51:00,
2013-06-21 07:01:00,59.7,59.7,30.13,West,270,0.0,0.0,100,0.00,,,0.00,WSDL version 423,2013-06-21 11:01:00,
2013-06-21 07:11:00,60.3,60.3,30.13,West,270,0.0,2.2,100,0.00,,,0.00,WSDL version 423,2013-06-21 11:11:00,
2013-06-21 07:21:00,61.0,61.0,30.13,West,270,0.0,0.0,100,0.00,,,0.00,WSDL version 423,2013-06-21 11:21:00,
2013-06-21 07:31:00,61.4,61.4,30.13,West,270,0.0,0.0,100,0.00,,,0.00,WSDL version 423,2013-06-21 11:31:00,
2013-06-21 07:41:00,62.1,62.1,30.13,West,270,0.0,2.2,100,0.00,,,0.00,WSDL version 423,2013-06-21 11:41:00,
2013-06-21 07:51:00,63.1,63.1,30.13,NE,45,0.0,3.6,100,0.00,,,0.00,WSDL version 423,2013-06-21 11:51:00,
2013-06-21 08:01:00,63.8,63.8,30.12,ESE,113,0.0,2.2,100,0.00,,,0.00,WSDL version 423,2013-06-21 12:01:00,
2013-06-21 08:11:00,64.7,64.7,30.12,NE,45,0.0,4.0,100,0.00,,,0.00,WSDL version 423,2013-06-21 12:11:00,
2013-06-21 08:21:00,65.6,65.6,30.12,NE,45,0.0,3.6,100,0.00,,,0.00,WSDL version 423,2013-06-21 12:21:00,
2013-06-21 08:31:00,66.4,66.4,30.13,NNE,23,0.0,3.1,100,0.00,,,0.00,WSDL version 423,2013-06-21 12:31:00,
2013-06-21 08:41:00,67.1,67.1,30.13,NNE,23,0.0,3.1,100,-99.99,,,-99.99,WSDL version 423,2013-06-21 12:41:00,
2013-06-21 08:51:00,68.5,68.5,30.13,North,360,0.0,4.0,100,0.00,,,0.00,WSDL version 423,2013-06-21 12:51:00,
2013-06-21 09:01:00,70.0,70.0,30.13,North,360,0.0,2.2,100,0.00,,,0.00,WSDL version 423,2013-06-21 13:01:00,
2013-06-21 09:11:00,71.3,71.3,30.13,North,360,0.0,0.0,100,0.00,,,0.00,WSDL version 423,2013-06-21 13:11:00,
2013-06-21 09:21:00,72.4,72.4,30.12,North,360,0.0,0.0,100,0.00,,,0.00,WSDL version 423,2013-06-21 13:21:00,
2013-06-21 09:31:00,73.0,73.0,30.12,North,360,0.0,3.1,100,0.00,,,0.00,WSDL version 423,2013-06-21 13:31:00,
2013-06-21 09:41:00,73.8,73.8,30.12,North,360,0.0,2.7,100,0.00,,,0.00,WSDL version 423,2013-06-21 13:41:00,
2013-06-21 09:51:00,74.0,74.0,30.12,North,360,0.0,0.0,100,0.00,,,0.00,WSDL version 423,2013-06-21 13:51:00,
2013-06-21 10:01:00,74.9,74.9,30.13,North,360,0.0,0.0,100,0.00,,,0.00,WSDL version 423,2013-06-21 14:01:00,
2013-06-21 10:13:00,75.3,75.3,30.13,North,360,0.0,2.7,100,0.00,,,0.00,WSDL version 423,2013-06-21 14:13:00,
2013-06-21 10:23:00,76.4,76.4,30.13,North,360,0.0,0.0,100,0.00,,,0.00,WSDL version 423,2013-06-21 14:23:00,
2013-06-21 10:33:00,77.1,77.1,30.13,North,360,0.0,0.0,100,0.00,,,0.00,WSDL version 423,2013-06-21 14:33:00,
2013-06-21 10:43:00,78.0,78.0,30.13,North,360,0.0,0.0,100,0.00,,,0.00,WSDL version 423,2013-06-21 14:43:00,
2013-06-21 10:53:00,79.0,79.0,30.13,North,360,0.0,0.0,100,0.00,,,0.00,WSDL version 423,2013-06-21 14:53:00,
2013-06-21 11:03:00,79.3,79.3,30.14,North,360,0.0,0.0,100,0.00,,,0.00,WSDL version 423,2013-06-21 15:03:00,
2013-06-21 11:13:00,80.0,80.0,30.14,North,360,0.0,3.6,100,0.00,,,0.00,WSDL version 423,2013-06-21 15:13:00,
2013-06-21 11:23:00,80.3,80.3,30.13,North,360,0.0,3.1,100,0.00,,,0.00,WSDL version 423,2013-06-21 15:23:00,
2013-06-21 11:33:00,80.3,80.3,30.13,North,360,0.0,3.1,100,0.00,,,0.00,WSDL version 423,2013-06-21 15:33:00,
2013-06-21 11:43:00,80.2,80.2,30.13,North,360,0.0,3.1,100,0.00,,,0.00,WSDL version 423,2013-06-21 15:43:00,
2013-06-21 11:53:00,80.8,80.8,30.13,North,360,0.0,2.7,100,0.00,,,0.00,WSDL version 423,2013-06-21 15:53:00,
2013-06-21 12:03:00,81.2,81.2,30.13,North,360,0.0,3.1,100,0.00,,,0.00,WSDL version 423,2013-06-21 16:03:00,
2013-06-21 12:13:00,81.8,81.8,30.12,North,360,0.0,3.6,100,0.00,,,0.00,WSDL version 423,2013-06-21 16:13:00,
2013-06-21 12:23:00,82.4,82.4,30.12,SSE,161,0.0,3.1,100,0.00,,,0.00,WSDL version 423,2013-06-21 16:23:00,
2013-06-21 12:33:00,82.5,82.5,30.12,NNE,15,0.0,3.1,100,0.00,,,0.00,WSDL version 423,2013-06-21 16:33:00,
2013-06-21 12:43:00,82.5,82.5,30.12,North,360,0.0,2.7,100,0.00,,,0.00,WSDL version 423,2013-06-21 16:43:00,
2013-06-21 12:53:00,82.9,82.9,30.12,North,360,0.0,3.6,100,0.00,,,0.00,WSDL version 423,2013-06-21 16:53:00,
2013-06-21 13:03:00,82.8,82.8,30.12,NNE,23,0.0,2.7,100,0.00,,,0.00,WSDL version 423,2013-06-21 17:03:00,
2013-06-21 13:15:00,83.1,83.1,30.11,NNE,17,0.0,4.9,100,0.00,,,0.00,WSDL version 423,2013-06-21 17:15:00,
2013-06-21 13:27:00,84.2,84.2,30.12,North,350,0.0,2.2,100,0.00,,,0.00,WSDL version 423,2013-06-21 17:27:00,
2013-06-21 13:37:00,84.1,84.1,30.12,West,264,0.0,4.9,100,0.00,,,0.00,WSDL version 423,2013-06-21 17:37:00,
2013-06-21 13:47:00,83.4,83.4,30.11,NNE,23,0.0,3.6,100,0.00,,,0.00,WSDL version 423,2013-06-21 17:47:00,
2013-06-21 14:01:00,84.7,84.7,30.11,West,263,1.0,4.0,100,0.00,,,0.00,WSDL version 423,2013-06-21 18:01:00,
2013-06-21 14:13:00,84.4,84.4,30.10,NW,325,0.0,3.6,100,0.00,,,0.00,WSDL version 423,2013-06-21 18:13:00,
2013-06-21 14:22:00,85.0,85.0,30.11,NNE,23,0.0,3.6,100,0.00,,,0.00,WSDL version 423,2013-06-21 18:22:00,
2013-06-21 14:32:00,86.4,86.4,30.10,WNW,289,0.0,2.7,100,0.00,,,0.00,WSDL version 423,2013-06-21 18:32:00,
2013-06-21 14:43:00,86.4,86.4,30.10,South,180,1.5,4.0,100,0.00,,,0.00,WSDL version 423,2013-06-21 18:43:00,
2013-06-21 14:52:00,86.6,86.6,30.10,South,177,0.0,2.7,100,0.00,,,0.00,WSDL version 423,2013-06-21 18:52:00,
2013-06-21 15:02:00,87.0,87.0,30.09,West,278,0.0,3.1,100,0.00,,,0.00,WSDL version 423,2013-06-21 19:02:00,
2013-06-21 15:12:00,86.9,86.9,30.10,NNE,23,0.0,3.1,100,0.00,,,0.00,WSDL version 423,2013-06-21 19:12:00,
2013-06-21 15:22:00,86.4,86.4,30.10,North,354,0.0,5.4,100,0.00,,,0.00,WSDL version 423,2013-06-21 19:22:00,
2013-06-21 15:32:00,86.4,86.4,30.10,SSE,160,0.0,3.1,100,0.00,,,0.00,WSDL version 423,2013-06-21 19:32:00,
2013-06-21 15:42:00,85.6,85.6,30.10,SE,143,0.0,4.0,100,0.00,,,0.00,WSDL version 423,2013-06-21 19:42:00,
2013-06-21 15:52:00,84.9,84.9,30.10,NNW,343,0.0,2.7,100,0.00,,,0.00,WSDL version 423,2013-06-21 19:52:00,
2013-06-21 16:02:00,85.2,85.2,30.10,North,11,0.0,3.1,100,0.00,,,0.00,WSDL version 423,2013-06-21 20:02:00,
2013-06-21 16:12:00,85.3,85.3,30.10,NE,45,0.0,3.1,100,0.00,,,0.00,WSDL version 423,2013-06-21 20:12:00,
2013-06-21 16:22:00,83.8,83.8,30.09,NE,45,0.0,0.0,100,0.00,,,0.00,WSDL version 423,2013-06-21 20:22:00,
2013-06-21 16:32:00,84.1,84.1,30.09,NE,45,0.0,0.0,100,0.00,,,0.00,WSDL version 423,2013-06-21 20:32:00,
2013-06-21 16:44:00,83.8,83.8,30.09,NE,45,0.0,0.0,100,0.00,,,0.00,WSDL version 423,2013-06-21 20:44:00,
2013-06-21 16:54:00,83.4,83.4,30.09,North,360,0.0,2.7,100,0.00,,,0.00,WSDL version 423,2013-06-21 20:54:00,
2013-06-21 17:04:00,83.4,83.4,30.09,West,270,0.0,3.1,100,0.00,,,0.00,WSDL version 423,2013-06-21 21:04:00,
2013-06-21 17:14:00,83.4,83.4,30.09,West,270,0.0,2.7,100,0.00,,,0.00,WSDL version 423,2013-06-21 21:14:00,
2013-06-21 17:24:00,83.4,83.4,30.09,West,270,0.0,0.0,100,0.00,,,0.00,WSDL version 423,2013-06-21 21:24:00,
2013-06-21 17:34:00,82.1,82.1,30.09,West,270,0.0,0.0,100,0.00,,,0.00,WSDL version 423,2013-06-21 21:34:00,
2013-06-21 17:44:00,84.2,84.2,30.09,West,270,0.0,0.0,100,0.00,,,0.00,WSDL version 423,2013-06-21 21:44:00,
2013-06-21 17:54:00,81.9,81.9,30.09,West,270,0.0,0.0,100,0.00,,,0.00,WSDL version 423,2013-06-21 21:54:00,
2013-06-21 18:04:00,80.3,80.3,30.09,West,270,0.0,0.0,100,0.00,,,0.00,WSDL version 423,2013-06-21 22:04:00,
2013-06-21 18:14:00,80.0,80.0,30.09,West,270,0.0,0.0,100,0.00,,,0.00,WSDL version 423,2013-06-21 22:14:00,
2013-06-21 18:24:00,79.5,79.5,30.09,West,270,0.0,0.0,100,0.00,,,0.00,WSDL version 423,2013-06-21 22:24:00,
2013-06-21 18:34:00,78.9,78.9,30.10,West,270,0.0,0.0,100,0.00,,,0.00,WSDL version 423,2013-06-21 22:34:00,
2013-06-21 18:44:00,78.6,78.6,30.10,West,270,0.0,0.0,100,0.00,,,0.00,WSDL version 423,2013-06-21 22:44:00,
2013-06-21 18:54:00,77.9,77.9,30.10,West,270,0.0,0.0,100,0.00,,,0.00,WSDL version 423,2013-06-21 22:54:00,
2013-06-21 19:04:00,77.1,77.1,30.10,West,270,0.0,0.0,100,0.00,,,0.00,WSDL version 423,2013-06-21 23:04:00,
2013-06-21 19:14:00,76.3,76.3,30.10,West,270,0.0,0.0,100,0.00,,,0.00,WSDL version 423,2013-06-21 23:14:00,
2013-06-21 19:24:00,75.7,75.7,30.10,West,270,0.0,0.0,100,0.00,,,0.00,WSDL version 423,2013-06-21 23:24:00,
2013-06-21 19:34:00,75.0,75.0,30.10,West,270,0.0,0.0,100,0.00,,,0.00,WSDL version 423,2013-06-21 23:34:00,
2013-06-21 19:44:00,74.3,74.3,30.10,West,270,0.0,0.0,100,0.00,,,0.00,WSDL version 423,2013-06-21 23:44:00,
2013-06-21 19:54:00,73.8,73.8,30.10,West,270,0.0,0.0,100,0.00,,,0.00,WSDL version 423,2013-06-21 23:54:00,
2013-06-21 20:04:00,73.3,73.3,30.10,West,270,0.0,0.0,100,0.00,,,0.00,WSDL version 423,2013-06-22 00:04:00,
2013-06-21 20:14:00,72.9,72.9,30.10,West,270,0.0,0.0,100,0.00,,,0.00,WSDL version 423,2013-06-22 00:14:00,
2013-06-21 20:24:00,72.5,72.5,30.11,West,270,0.0,0.0,100,0.00,,,0.00,WSDL version 423,2013-06-22 00:24:00,
2013-06-21 20:34:00,71.9,71.9,30.10,West,270,0.0,0.0,100,0.00,,,0.00,WSDL version 423,2013-06-22 00:34:00,
2013-06-21 20:44:00,71.5,71.5,30.10,West,270,0.0,0.0,100,0.00,,,0.00,WSDL version 423,2013-06-22 00:44:00,
2013-06-21 20:54:00,71.1,71.1,30.10,West,270,0.0,0.0,100,0.00,,,0.00,WSDL version 423,2013-06-22 00:54:00,
2013-06-21 21:04:00,70.7,70.7,30.10,West,270,0.0,0.0,100,0.00,,,0.00,WSDL version 423,2013-06-22 01:04:00,
2013-06-21 21:14:00,70.3,70.3,30.11,West,270,0.0,0.0,100,0.00,,,0.00,WSDL version 423,2013-06-22 01:14:00,
2013-06-21 21:24:00,70.1,70.1,30.11,West,270,0.0,0.0,100,0.00,,,0.00,WSDL version 423,2013-06-22 01:24:00,
2013-06-21 21:34:00,70.0,70.0,30.11,West,270,0.0,0.0,100,0.00,,,0.00,WSDL version 423,2013-06-22 01:34:00,
2013-06-21 21:44:00,69.6,69.6,30.11,West,270,0.0,0.0,100,0.00,,,0.00,WSDL version 423,2013-06-22 01:44:00,
2013-06-21 21:54:00,69.3,69.3,30.11,West,270,0.0,0.0,100,0.00,,,0.00,WSDL version 423,2013-06-22 01:54:00,
2013-06-21 22:04:00,69.0,69.0,30.11,West,270,0.0,0.0,100,0.00,,,0.00,WSDL version 423,2013-06-22 02:04:00,
2013-06-21 22:14:00,68.7,68.7,30.12,West,270,0.0,0.0,100,0.00,,,0.00,WSDL version 423,2013-06-22 02:14:00,
2013-06-21 22:24:00,68.4,68.4,30.11,West,270,0.0,0.0,100,0.00,,,0.00,WSDL version 423,2013-06-22 02:24:00,
2013-06-21 22:34:00,68.2,68.2,30.12,West,270,0.0,0.0,100,0.00,,,0.00,WSDL version 423,2013-06-22 02:34:00,
2013-06-21 22:44:00,68.3,68.3,30.11,West,270,0.0,0.0,100,0.00,,,0.00,WSDL version 423,2013-06-22 02:44:00,
2013-06-21 22:54:00,68.1,68.1,30.11,West,270,0.0,0.0,100,0.00,,,0.00,WSDL version 423,2013-06-22 02:54:00,
2013-06-21 23:04:00,68.0,68.0,30.11,West,270,0.0,0.0,100,0.00,,,0.00,WSDL version 423,2013-06-22 03:04:00,
2013-06-21 23:14:00,68.0,68.0,30.11,West,270,0.0,0.0,100,0.00,,,0.00,WSDL version 423,2013-06-22 03:14:00,
2013-06-21 23:24:00,67.8,67.8,30.11,West,270,0.0,0.0,100,0.00,,,0.00,WSDL version 423,2013-06-22 03:24:00,
2013-06-21 23:34:00,67.6,67.6,30.11,West,270,0.0,0.0,100,0.00,,,0.00,WSDL version 423,2013-06-22 03:34:00,
2013-06-21 23:44:00,67.4,67.4,30.11,West,270,0.0,0.0,100,0.00,,,0.00,WSDL version 423,2013-06-22 03:44:00,
2013-06-21 23:54:00,67.2,67.2,30.11,West,270,0.0,0.0,100,0.00,,,0.00,WSDL version 423,2013-06-22 03:54:00,